Fremont, NE

9:54 AM CDT on September 26, 2017 (GMT -0500)
Fremont Municipal

Weather History for KFET - April, 2014

Change the Weather History Date:

Wednesday, April 16, 2014

  Actual Average Record
Temperature  
Mean Temperature 50 °F -  
Max Temperature 66 °F 65 °F 89 °F (1964)
Min Temperature 34 °F 41 °F 24 °F (1951)
Degree Days  
Heating Degree Days 16    
Moisture  
Dew Point 28 °F    
Average Humidity 48    
Maximum Humidity 76    
Minimum Humidity 23    
Precipitation  
Precipitation 0.00 in - - ()
Sea Level Pressure  
Sea Level Pressure 29.80 in    
Wind  
Wind Speed 20 mph (SSW)    
Max Wind Speed 34 mph    
Max Gust Speed 41 mph    
Visibility 10 miles    
Events      
Averages and records for this station are not official NWS values.
T = Trace of Precipitation, MM = Missing Value Source: NWS Daily Summary

Daily Weather History Graph

Daily Weather History Graph

Search for Another Location

Airport or City:

Trip Planner

Search our weather history database for the weather conditions in past years. The results will help you decide how hot, cold, wet, or windy it might be!

Date:

Astronomy

Apr. 16, 2014 Rise Set
Actual Time 6:44 AM CDT 8:07 PM CDT
Civil Twilight 6:15 AM CDT 8:36 PM CDT
Nautical Twilight 5:41 AM CDT 9:11 PM CDT
Astronomical Twilight 5:04 AM CDT 9:47 PM CDT
Moon 9:53 PM CDT (4/16) 7:32 AM CDT (4/16)
Length of Visible Light 14h 20m
Length of Day
13h 22m
Full, 98% of the Moon is Illuminated
Apr 16
Full
Apr 22
Last Quarter
Apr 29
New
May 6
First Quarter
May 14
Full

Hourly Weather History & Observations

Time (CDT) Temp. Windchill Dew Point Humidity Pressure Visibility Wind Dir Wind Speed Gust Speed Precip Events Conditions
12:15 AM 47.1 °F - 29.8 °F 51% 29.78 in 10.0 mi SE 21.9 mph 26.5 mph N/A   Clear
12:35 AM 46.8 °F - 30.0 °F 52% 29.78 in 10.0 mi SSE 19.6 mph 25.3 mph N/A   Clear
12:55 AM 46.6 °F - 30.0 °F 53% 29.77 in 10.0 mi SSE 16.1 mph 24.2 mph N/A   Clear
1:15 AM 46.4 °F 39.2 °F 29.8 °F 53% 29.76 in 10.0 mi SSE 18.4 mph 26.5 mph N/A   Clear
1:35 AM 46.4 °F 39.5 °F 29.1 °F 51% 29.75 in 10.0 mi SSE 17.3 mph 25.3 mph N/A   Clear
1:55 AM 46.4 °F 39.8 °F 28.4 °F 50% 29.75 in 10.0 mi SSE 16.1 mph 26.5 mph N/A   Clear
2:15 AM 46.4 °F 39.0 °F 28.0 °F 49% 29.74 in 10.0 mi SSE 19.6 mph 25.3 mph N/A   Clear
2:35 AM 46.6 °F - 27.1 °F 47% 29.74 in 10.0 mi SSE 18.4 mph 23.0 mph N/A   Clear
2:55 AM 47.5 °F - 25.3 °F 42% 29.73 in 10.0 mi South 20.7 mph 27.6 mph N/A   Clear
3:15 AM 48.6 °F - 23.5 °F 37% 29.73 in 10.0 mi SSE 21.9 mph 27.6 mph N/A   Clear
3:35 AM 48.4 °F - 23.9 °F 38% 29.72 in 10.0 mi SSE 18.4 mph 28.8 mph N/A   Clear
3:55 AM 48.2 °F - 24.1 °F 39% 29.72 in 10.0 mi SSE 20.7 mph 28.8 mph N/A   Clear
4:15 AM 48.2 °F - 24.3 °F 39% 29.72 in 10.0 mi SSE 18.4 mph 27.6 mph N/A   Clear
4:35 AM 47.5 °F - 24.8 °F 41% 29.71 in 10.0 mi SSE 19.6 mph 27.6 mph N/A   Clear
4:55 AM 47.8 °F - 25.0 °F 41% 29.70 in 10.0 mi SSE 21.9 mph 28.8 mph N/A   Clear
5:15 AM 47.7 °F - 25.3 °F 42% 29.69 in 10.0 mi SSE 19.6 mph 26.5 mph N/A   Clear
5:35 AM 47.5 °F - 25.5 °F 42% 29.69 in 10.0 mi SSE 20.7 mph 28.8 mph N/A   Scattered Clouds
5:55 AM 47.1 °F - 26.1 °F 44% 29.69 in 10.0 mi SSE 17.3 mph 24.2 mph N/A   Clear
6:15 AM 47.3 °F - 25.7 °F 43% 29.70 in 10.0 mi SSE 17.3 mph 23.0 mph N/A   Scattered Clouds
6:35 AM 47.3 °F - 25.7 °F 43% 29.70 in 10.0 mi SSE 15.0 mph 25.3 mph N/A   Scattered Clouds
6:55 AM 47.3 °F - 26.2 °F 44% 29.70 in 10.0 mi SSE 15.0 mph 18.4 mph N/A   Scattered Clouds
7:15 AM 47.8 °F - 25.7 °F 42% 29.71 in 10.0 mi SSE 17.3 mph 26.5 mph N/A   Scattered Clouds
7:35 AM 48.2 °F - 25.5 °F 41% 29.72 in 10.0 mi South 9.2 mph 19.6 mph N/A   Mostly Cloudy
7:55 AM 48.4 °F - 25.5 °F 41% 29.72 in 10.0 mi SSE 16.1 mph 20.7 mph N/A   Scattered Clouds
8:15 AM 48.6 °F - 26.2 °F 42% 29.71 in 10.0 mi SSE 18.4 mph - N/A   Clear
8:35 AM 49.8 °F - 26.4 °F 40% 29.70 in 10.0 mi SSE 16.1 mph 23.0 mph N/A   Clear
8:55 AM 50.2 °F - 25.7 °F 39% 29.71 in 10.0 mi South 13.8 mph 26.5 mph N/A   Clear
9:15 AM 51.1 °F - 25.9 °F 38% 29.70 in 10.0 mi SSE 17.3 mph 25.3 mph N/A   Clear
9:35 AM 51.4 °F - 25.5 °F 37% 29.70 in 10.0 mi SSE 17.3 mph 28.8 mph N/A   Clear
9:55 AM 51.8 °F - 25.5 °F 36% 29.69 in 10.0 mi SSE 18.4 mph 27.6 mph N/A   Clear
10:15 AM 52.3 °F - 24.8 °F 34% 29.70 in 10.0 mi South 18.4 mph 25.3 mph N/A   Clear
10:35 AM 52.7 °F - 24.3 °F 33% 29.70 in 10.0 mi South 17.3 mph 29.9 mph N/A   Scattered Clouds
10:55 AM 53.4 °F - 24.1 °F 32% 29.69 in 10.0 mi South 20.7 mph 28.8 mph N/A   Scattered Clouds
11:15 AM 55.0 °F - 24.8 °F 31% 29.70 in 10.0 mi South 18.4 mph - N/A   Clear
11:35 AM 55.6 °F - 24.3 °F 30% 29.70 in 10.0 mi South 18.4 mph 33.4 mph N/A   Clear
11:55 AM 56.5 °F - 24.6 °F 29% 29.70 in 10.0 mi South 18.4 mph 26.5 mph N/A   Clear
12:15 PM 56.8 °F - 24.6 °F 29% 29.70 in 10.0 mi South 13.8 mph 28.8 mph N/A   Clear
12:35 PM 57.6 °F - 24.6 °F 28% 29.70 in 10.0 mi South 16.1 mph 29.9 mph N/A   Clear
12:55 PM 61.0 °F - 25.7 °F 26% 29.69 in 10.0 mi South 18.4 mph 29.9 mph N/A   Clear
1:15 PM 62.4 °F - 25.0 °F 24% 29.69 in 10.0 mi SSW 20.7 mph 25.3 mph N/A   Clear
1:35 PM 62.8 °F - 25.2 °F 24% 29.68 in 10.0 mi SSW 18.4 mph 25.3 mph N/A   Clear
1:55 PM 64.0 °F - 25.2 °F 23% 29.69 in 10.0 mi SSW 20.7 mph 27.6 mph N/A   Clear
2:15 PM 64.8 °F - 25.9 °F 23% 29.69 in 10.0 mi SSW 18.4 mph 25.3 mph N/A   Clear
2:35 PM 64.8 °F - 26.4 °F 23% 29.68 in 10.0 mi SSW 17.3 mph 26.5 mph N/A   Clear
2:55 PM 65.7 °F - 27.5 °F 24% 29.68 in 10.0 mi WSW 15.0 mph 26.5 mph N/A   Clear
3:15 PM 64.4 °F - 29.8 °F 27% 29.69 in 10.0 mi West 25.3 mph 34.5 mph N/A   Clear
3:35 PM 62.1 °F - 32.4 °F 33% 29.71 in 10.0 mi West 26.5 mph 34.5 mph N/A   Scattered Clouds
3:55 PM 55.6 °F - 32.7 °F 42% 29.74 in 10.0 mi WNW 34.5 mph 41.4 mph N/A   Mostly Cloudy
4:15 PM 53.2 °F - 33.3 °F 47% 29.77 in 10.0 mi WNW 34.5 mph 40.3 mph N/A   Overcast
4:35 PM 50.4 °F - 33.1 °F 52% 29.79 in 10.0 mi WNW 28.8 mph 38.0 mph N/A   Overcast
4:55 PM 49.3 °F - 32.5 °F 53% 29.81 in 10.0 mi WNW 33.4 mph 36.8 mph N/A   Overcast
5:15 PM 45.3 °F 35.7 °F 31.8 °F 59% 29.84 in 10.0 mi WNW 29.9 mph 41.4 mph N/A   Mostly Cloudy
5:35 PM 43.3 °F 32.5 °F 32.0 °F 64% 29.85 in 10.0 mi WNW 33.4 mph 39.1 mph N/A   Overcast
5:55 PM 42.4 °F 31.6 °F 32.0 °F 67% 29.87 in 10.0 mi NW 31.1 mph 40.3 mph N/A   Overcast
6:15 PM 40.6 °F 29.6 °F 32.0 °F 71% 29.89 in 10.0 mi NW 28.8 mph 40.3 mph N/A   Mostly Cloudy
6:35 PM 40.1 °F 29.0 °F 32.0 °F 73% 29.91 in 10.0 mi NW 27.6 mph 36.8 mph N/A   Mostly Cloudy
6:55 PM 39.9 °F 28.8 °F 31.8 °F 73% 29.93 in 10.0 mi NW 27.6 mph 35.7 mph N/A   Overcast
7:15 PM 38.8 °F 27.8 °F 31.1 °F 74% 29.95 in 10.0 mi NW 25.3 mph 33.4 mph N/A   Overcast
7:35 PM 38.7 °F 26.5 °F 30.9 °F 74% 29.96 in 10.0 mi WNW 31.1 mph 36.8 mph N/A   Overcast
7:55 PM 38.3 °F 26.8 °F 30.6 °F 74% 29.97 in 10.0 mi NW 26.5 mph 38.0 mph N/A   Overcast
8:15 PM 38.3 °F 27.3 °F 30.6 °F 74% 29.99 in 10.0 mi NW 24.2 mph 35.7 mph N/A   Overcast
8:35 PM 37.9 °F 28.9 °F 30.2 °F 74% 30.01 in 10.0 mi NW 16.1 mph 31.1 mph N/A   Overcast
8:55 PM 37.8 °F 26.8 °F 30.2 °F 74% 30.03 in 10.0 mi NW 23.0 mph 28.8 mph N/A   Overcast
9:15 PM 37.8 °F 26.6 °F 30.2 °F 74% 30.05 in 10.0 mi NW 24.2 mph 29.9 mph N/A   Overcast
9:35 PM 37.4 °F 26.6 °F 29.7 °F 74% 30.06 in 10.0 mi NNW 21.9 mph 32.2 mph N/A   Overcast
9:55 PM 36.9 °F 26.2 °F 29.3 °F 74% 30.08 in 10.0 mi NW 20.7 mph 32.2 mph N/A   Overcast
10:15 PM 36.5 °F 26.0 °F 29.1 °F 75% 30.09 in 10.0 mi NNW 19.6 mph 27.6 mph N/A   Overcast
10:35 PM 36.1 °F 25.0 °F 28.8 °F 75% 30.11 in 10.0 mi NW 21.9 mph - N/A   Overcast
10:55 PM 35.6 °F 24.0 °F 28.4 °F 75% 30.11 in 10.0 mi NNW 23.0 mph 31.1 mph N/A   Overcast
11:15 PM 35.2 °F 24.4 °F 28.2 °F 76% 30.12 in 10.0 mi NNW 19.6 mph 27.6 mph N/A   Overcast
11:35 PM 34.9 °F 26.2 °F 28.0 °F 76% 30.13 in 10.0 mi NNW 12.7 mph 26.5 mph N/A   Overcast
11:55 PM 34.3 °F 24.6 °F 27.3 °F 76% 30.14 in 10.0 mi NNW 15.0 mph 25.3 mph N/A   Overcast